Weather History for 17060 - January, 2013

Change the Weather History Date:

Sunday, January 20, 2013

  Actual Average Record
Temperature  
Mean Temperature 52 °F -  
Max Temperature 56 °F 47 °F - ()
Min Temperature 47 °F 37 °F - ()
Degree Days  
Heating Degree Days 14    
Growing Degree Days 2 (Base 50)    
Moisture  
Dew Point 43 °F    
Average Humidity 72    
Maximum Humidity 77    
Minimum Humidity 62    
Precipitation  
Precipitation 0.00 in - - ()
Sea Level Pressure  
Sea Level Pressure 29.88 in    
Wind  
Wind Speed 12 mph ()    
Max Wind Speed 17 mph    
Max Gust Speed -    
Visibility 6.2 miles    
Events      
T = Trace of Precipitation, MM = Missing Value Source: Averaged Metar Reports

Daily Weather History Graph

Daily Weather History Graph

Search for Another Location

Airport or City:

Trip Planner

Search our weather history database for the weather conditions in past years. The results will help you decide how hot, cold, wet, or windy it might be!

Date:

Astronomy

Jan. 20, 2013 Rise Set
Actual Time 7:24 AM EET 5:07 PM EET
Civil Twilight 6:54 AM EET 5:37 PM EET
Nautical Twilight 6:21 AM EET 6:10 PM EET
Astronomical Twilight 5:48 AM EET 6:43 PM EET
Moon 11:56 AM EET (1/20) 1:37 AM EET (1/20)
Length of Visible Light 10h 42m
Length of Day
9h 42m
Waxing Gibbous, 63% of the Moon is Illuminated
Jan 20
Waxing Gibbous
Jan 27
Full
Feb 3
Last Quarter
Feb 10
New
Feb 17
First Quarter

Hourly Weather History & Observations

Time (EET) Temp. Dew Point Humidity Pressure Visibility Wind Dir Wind Speed Gust Speed Precip Events Conditions
12:20 AM 48.2 °F 39.2 °F 71% 29.80 in 6.2 mi SSW 15.0 mph - N/A   Scattered Clouds
12:50 AM 48.2 °F 39.2 °F 71% 29.80 in 6.2 mi SSW 17.3 mph - N/A   Scattered Clouds
1:20 AM 48.2 °F 39.2 °F 71% 29.80 in 6.2 mi SSW 15.0 mph - N/A   Partly Cloudy
1:50 AM 48.2 °F 41.0 °F 76% 29.80 in 6.2 mi SSW 12.7 mph - N/A   Partly Cloudy
2:00 AM 48 °F 40 °F 67% 29.83 in 6 mi SSW 12.7 mph - -   Scattered Clouds
2:20 AM 48.2 °F 41.0 °F 76% 29.83 in 6.2 mi SSW 15.0 mph - N/A   Partly Cloudy
2:50 AM 50.0 °F 41.0 °F 71% 29.83 in 6.2 mi SSW 16.1 mph - N/A   Partly Cloudy
3:20 AM 50.0 °F 39.2 °F 66% 29.83 in 6.2 mi SSW 15.0 mph - N/A   Scattered Clouds
3:50 AM 50.0 °F 41.0 °F 71% 29.83 in 6.2 mi SSW 13.8 mph - N/A   Scattered Clouds
4:20 AM 50.0 °F 41.0 °F 71% 29.83 in 6.2 mi SSW 15.0 mph - N/A   Scattered Clouds
4:50 AM 50.0 °F 41.0 °F 71% 29.83 in 6.2 mi SSW 16.1 mph - N/A   Scattered Clouds
5:20 AM 50.0 °F 41.0 °F 71% 29.83 in 6.2 mi SW 17.3 mph - N/A   Scattered Clouds
5:50 AM 50.0 °F 41.0 °F 71% 29.83 in 6.2 mi SW 13.8 mph - N/A   Scattered Clouds
6:20 AM 50.0 °F 41.0 °F 71% 29.86 in 6.2 mi SW 12.7 mph - N/A   Scattered Clouds
6:50 AM 48.2 °F 41.0 °F 76% 29.86 in 6.2 mi SSW 15.0 mph - N/A   Scattered Clouds
7:20 AM 48.2 °F 41.0 °F 76% 29.86 in 6.2 mi SSW 13.8 mph - N/A   Scattered Clouds
7:50 AM 50.0 °F 41.0 °F 71% 29.86 in 6.2 mi SSW 15.0 mph - N/A   Scattered Clouds
8:00 AM 50 °F 41 °F 63% 29.88 in 6 mi SSW 15.0 mph - -   Partly Cloudy
8:20 AM 50.0 °F 41.0 °F 71% 29.86 in 6.2 mi SSW 16.1 mph - N/A   Scattered Clouds
8:50 AM 50.0 °F 42.8 °F 76% 29.89 in 6.2 mi SSW 13.8 mph - N/A   Scattered Clouds
9:20 AM 50.0 °F 42.8 °F 76% 29.89 in 6.2 mi SSW 12.7 mph - N/A   Scattered Clouds
9:50 AM 51.8 °F 44.6 °F 76% 29.89 in 6.2 mi SSW 11.5 mph - N/A   Scattered Clouds
10:20 AM 51.8 °F 44.6 °F 76% 29.92 in 6.2 mi SSW 11.5 mph - N/A   Scattered Clouds
10:50 AM 51.8 °F 44.6 °F 76% 29.92 in 6.2 mi SSW 10.4 mph - N/A   Scattered Clouds
11:20 AM 51.8 °F 44.6 °F 76% 29.89 in 6.2 mi SSW 10.4 mph - N/A   Scattered Clouds
11:50 AM 51.8 °F 42.8 °F 71% 29.89 in 6.2 mi SW 11.5 mph - N/A   Scattered Clouds
12:20 PM 53.6 °F 44.6 °F 72% 29.89 in 6.2 mi WSW 10.4 mph - N/A   Scattered Clouds
12:50 PM 53.6 °F 44.6 °F 72% 29.89 in 6.2 mi WSW 8.1 mph - N/A   Scattered Clouds
1:20 PM 53.6 °F 44.6 °F 72% 29.86 in 6.2 mi SW 11.5 mph - N/A   Scattered Clouds
1:50 PM 55.4 °F 44.6 °F 67% 29.86 in 6.2 mi SW 8.1 mph - N/A   Scattered Clouds
2:00 PM 54 °F 45 °F 62% 29.89 in 6 mi SW 8.1 mph - -   Partly Cloudy
2:20 PM 55.4 °F 44.6 °F 67% 29.86 in 6.2 mi SW 13.8 mph - N/A   Scattered Clouds
2:50 PM 53.6 °F 44.6 °F 72% 29.86 in 6.2 mi SW 10.4 mph - N/A   Scattered Clouds
3:20 PM 55.4 °F 44.6 °F 67% 29.89 in 6.2 mi SW 10.4 mph - N/A   Scattered Clouds
3:50 PM 53.6 °F 44.6 °F 72% 29.89 in 6.2 mi SW 6.9 mph - N/A   Scattered Clouds
4:20 PM 53.6 °F 44.6 °F 72% 29.89 in 6.2 mi SW 5.8 mph - N/A   Scattered Clouds
4:50 PM 55.4 °F 44.6 °F 67% 29.89 in 6.2 mi SW 9.2 mph - N/A   Scattered Clouds
5:20 PM 55.4 °F 44.6 °F 67% 29.89 in 6.2 mi SSW 9.2 mph - N/A   Scattered Clouds
5:50 PM 53.6 °F 44.6 °F 72% 29.92 in 6.2 mi WSW 4.6 mph - N/A   Scattered Clouds
6:20 PM 53.6 °F 44.6 °F 72% 29.92 in 6.2 mi SSW 3.5 mph - N/A   Scattered Clouds
6:50 PM 53.6 °F 46.4 °F 77% 29.92 in 6.2 mi SW 4.6 mph - N/A   Scattered Clouds
7:20 PM 53.6 °F 46.4 °F 77% 29.92 in 6.2 mi SSW 6.9 mph - N/A   Partly Cloudy
7:50 PM 53.6 °F 46.4 °F 77% 29.92 in 6.2 mi SW 6.9 mph - N/A   Partly Cloudy
8:00 PM 53 °F 46 °F 71% 29.93 in 6 mi SW 6.9 mph - -   Scattered Clouds
8:20 PM 53.6 °F 46.4 °F 77% 29.92 in 6.2 mi SW 8.1 mph - N/A   Partly Cloudy
8:50 PM 53.6 °F 46.4 °F 77% 29.92 in 6.2 mi SW 8.1 mph - N/A   Partly Cloudy
9:20 PM 53.6 °F 46.4 °F 77% 29.92 in 6.2 mi WSW 8.1 mph - N/A   Scattered Clouds
9:50 PM 55.4 °F 46.4 °F 72% 29.92 in 6.2 mi WSW 10.4 mph - N/A   Partly Cloudy
10:20 PM 53.6 °F 46.4 °F 77% 29.92 in 6.2 mi WSW 9.2 mph - N/A   Partly Cloudy
10:50 PM 53.6 °F 46.4 °F 77% 29.92 in 6.2 mi SW 11.5 mph - N/A   Partly Cloudy
11:20 PM 53.6 °F 46.4 °F 77% 29.95 in 6.2 mi WSW 9.2 mph - N/A   Partly Cloudy
11:50 PM 53.6 °F 46.4 °F 77% 29.95 in 6.2 mi SW 10.4 mph - N/A   Partly Cloudy